Time,TemperatureF,DewpointF,PressureIn,WindDirection,WindDirectionDegrees,WindSpeedMPH,WindSpeedGustMPH,Humidity,HourlyPrecipIn,Conditions,Clouds,dailyrainin,SoftwareType,DateUTC
2013-07-02 00:00:00,64.5,62.0,29.93,SSW,205,0.0,0.0,90,0.00,,,0.00,weatherlink.com 1.10,2013-07-02 05:00:00,
2013-07-02 00:15:00,64.1,62.0,29.93,SSW,205,0.0,0.0,92,0.00,,,0.00,weatherlink.com 1.10,2013-07-02 05:15:00,
2013-07-02 00:30:00,63.7,62.0,29.92,SSW,205,0.0,0.0,93,0.00,,,0.00,weatherlink.com 1.10,2013-07-02 05:30:00,
2013-07-02 00:45:00,63.4,61.0,29.92,SSW,205,0.0,0.0,93,0.00,,,0.00,weatherlink.com 1.10,2013-07-02 05:45:00,
2013-07-02 01:00:00,63.1,61.0,29.92,SSW,205,0.0,0.0,94,0.00,,,0.00,weatherlink.com 1.10,2013-07-02 06:00:00,
2013-07-02 01:15:00,62.8,61.0,29.92,SSW,205,0.0,0.0,95,0.00,,,0.00,weatherlink.com 1.10,2013-07-02 06:15:00,
2013-07-02 01:30:00,62.6,61.0,29.92,SSW,205,0.0,0.0,95,0.00,,,0.00,weatherlink.com 1.10,2013-07-02 06:30:00,
2013-07-02 01:45:00,62.6,62.0,29.92,SSW,205,0.0,0.0,96,0.00,,,0.00,weatherlink.com 1.10,2013-07-02 06:45:00,
2013-07-02 02:00:00,62.8,62.0,29.92,SSW,205,0.0,0.0,96,0.00,,,0.00,weatherlink.com 1.10,2013-07-02 07:00:00,
2013-07-02 02:15:00,63.3,62.0,29.92,SSW,205,0.0,0.0,96,0.00,,,0.00,weatherlink.com 1.10,2013-07-02 07:15:00,
2013-07-02 02:30:00,63.7,63.0,29.92,SSW,205,0.0,0.0,96,0.00,,,0.00,weatherlink.com 1.10,2013-07-02 07:30:00,
2013-07-02 02:45:00,63.6,62.0,29.92,SSW,205,0.0,0.0,95,0.00,,,0.00,weatherlink.com 1.10,2013-07-02 07:45:00,
2013-07-02 03:00:00,63.3,62.0,29.92,SSW,205,0.0,0.0,95,0.00,,,0.00,weatherlink.com 1.10,2013-07-02 08:00:00,
2013-07-02 03:15:00,62.9,62.0,29.91,SSW,205,0.0,0.0,96,0.00,,,0.00,weatherlink.com 1.10,2013-07-02 08:15:00,
2013-07-02 03:30:00,62.5,61.0,29.91,SSW,205,0.0,0.0,96,0.00,,,0.00,weatherlink.com 1.10,2013-07-02 08:30:00,
2013-07-02 03:45:00,62.3,61.0,29.91,SSW,205,0.0,0.0,96,0.00,,,0.00,weatherlink.com 1.10,2013-07-02 08:45:00,
2013-07-02 04:00:00,62.2,61.0,29.91,SSW,205,0.0,0.0,97,0.00,,,0.00,weatherlink.com 1.10,2013-07-02 09:00:00,
2013-07-02 04:15:00,61.9,61.0,29.92,SSW,205,0.0,0.0,97,0.00,,,0.00,weatherlink.com 1.10,2013-07-02 09:15:00,
2013-07-02 04:30:00,61.7,61.0,29.92,SSW,205,0.0,0.0,97,0.00,,,0.00,weatherlink.com 1.10,2013-07-02 09:30:00,
2013-07-02 04:45:00,61.5,61.0,29.92,SSW,205,0.0,0.0,97,0.00,,,0.00,weatherlink.com 1.10,2013-07-02 09:45:00,
2013-07-02 05:00:00,61.4,61.0,29.93,SSW,205,0.0,0.0,97,0.00,,,0.00,weatherlink.com 1.10,2013-07-02 10:00:00,
2013-07-02 05:15:00,61.3,61.0,29.93,SSW,205,0.0,0.0,97,0.00,,,0.00,weatherlink.com 1.10,2013-07-02 10:15:00,
2013-07-02 05:30:00,61.1,60.0,29.94,SSW,205,0.0,0.0,97,0.00,,,0.00,weatherlink.com 1.10,2013-07-02 10:30:00,
2013-07-02 05:45:00,61.0,60.0,29.94,SSW,205,0.0,0.0,97,0.00,,,0.00,weatherlink.com 1.10,2013-07-02 10:45:00,
2013-07-02 06:00:00,60.9,60.0,29.95,SSW,205,0.0,0.0,97,0.00,,,0.00,weatherlink.com 1.10,2013-07-02 11:00:00,
2013-07-02 06:15:00,61.1,61.0,29.95,SSW,205,0.0,0.0,98,0.00,,,0.00,weatherlink.com 1.10,2013-07-02 11:15:00,
2013-07-02 06:30:00,61.6,61.0,29.96,SSW,205,0.0,0.0,98,0.00,,,0.00,weatherlink.com 1.10,2013-07-02 11:30:00,
2013-07-02 06:45:00,62.2,62.0,29.96,SSW,205,0.0,0.0,98,0.00,,,0.00,weatherlink.com 1.10,2013-07-02 11:45:00,
2013-07-02 07:00:00,62.9,62.0,29.96,SSW,205,0.0,0.0,98,0.00,,,0.00,weatherlink.com 1.10,2013-07-02 12:00:00,
2013-07-02 07:15:00,63.5,63.0,29.96,SSW,205,0.0,0.0,97,0.00,,,0.00,weatherlink.com 1.10,2013-07-02 12:15:00,
2013-07-02 07:30:00,64.1,63.0,29.97,SSW,205,0.0,0.0,97,0.00,,,0.00,weatherlink.com 1.10,2013-07-02 12:30:00,
2013-07-02 07:45:00,65.3,64.0,29.97,SSW,206,0.0,0.0,94,0.00,,,0.00,weatherlink.com 1.10,2013-07-02 12:45:00,
2013-07-02 08:00:00,66.6,64.0,29.97,SE,143,0.0,1.0,92,0.00,,,0.00,weatherlink.com 1.10,2013-07-02 13:00:00,
2013-07-02 08:16:00,67.6,64.0,29.97,South,178,0.0,1.0,89,0.00,,,0.00,weatherlink.com 1.10,2013-07-02 13:16:00,
2013-07-02 08:31:00,68.6,65.0,29.97,ESE,122,0.0,1.0,87,0.00,,,0.00,weatherlink.com 1.10,2013-07-02 13:31:00,
2013-07-02 08:46:00,69.8,64.0,29.98,NE,52,1.0,2.0,81,0.00,,,0.00,weatherlink.com 1.10,2013-07-02 13:46:00,
2013-07-02 09:01:00,70.8,64.0,29.98,NE,55,0.0,1.0,78,0.00,,,0.00,weatherlink.com 1.10,2013-07-02 14:01:00,
2013-07-02 09:16:00,72.7,65.0,29.98,NE,49,0.0,3.0,77,0.00,,,0.00,weatherlink.com 1.10,2013-07-02 14:16:00,
2013-07-02 09:31:00,74.2,64.0,29.98,North,10,2.0,3.0,71,0.00,,,0.00,weatherlink.com 1.10,2013-07-02 14:31:00,
2013-07-02 09:46:00,75.7,64.0,29.98,East,95,0.0,3.0,66,0.00,,,0.00,weatherlink.com 1.10,2013-07-02 14:46:00,
2013-07-02 10:01:00,76.4,66.0,29.98,SE,143,0.0,3.0,70,0.00,,,0.00,weatherlink.com 1.10,2013-07-02 15:01:00,
2013-07-02 10:16:00,77.4,65.0,29.98,East,82,0.0,4.0,65,0.00,,,0.00,weatherlink.com 1.10,2013-07-02 15:16:00,
2013-07-02 10:31:00,78.1,66.0,29.98,NW,317,0.0,1.0,67,0.00,,,0.00,weatherlink.com 1.10,2013-07-02 15:31:00,
2013-07-02 10:46:00,78.3,65.0,29.98,ENE,60,1.0,6.0,64,0.00,,,0.00,weatherlink.com 1.10,2013-07-02 15:46:00,
2013-07-02 11:01:00,78.4,66.0,29.98,East,82,3.0,5.0,65,0.00,,,0.00,weatherlink.com 1.10,2013-07-02 16:01:00,
2013-07-02 11:16:00,79.2,65.0,29.98,SSW,210,1.0,4.0,62,0.00,,,0.00,weatherlink.com 1.10,2013-07-02 16:16:00,
2013-07-02 11:31:00,79.3,64.0,29.98,SW,221,2.0,3.0,59,0.00,,,0.00,weatherlink.com 1.10,2013-07-02 16:31:00,
2013-07-02 11:46:00,79.8,65.0,29.98,SSE,153,1.0,7.0,60,0.00,,,0.00,weatherlink.com 1.10,2013-07-02 16:46:00,
2013-07-02 12:01:00,79.7,64.0,29.98,SSE,165,2.0,5.0,58,0.00,,,0.00,weatherlink.com 1.10,2013-07-02 17:01:00,
2013-07-02 12:16:00,79.7,65.0,29.98,NE,43,1.0,8.0,62,0.00,,,0.00,weatherlink.com 1.10,2013-07-02 17:16:00,
2013-07-02 12:31:00,80.1,65.0,29.98,NE,44,0.0,4.0,61,0.00,,,0.00,weatherlink.com 1.10,2013-07-02 17:31:00,
2013-07-02 12:46:00,78.6,64.0,29.99,ENE,78,0.0,5.0,61,0.00,,,0.00,weatherlink.com 1.10,2013-07-02 17:46:00,
2013-07-02 13:01:00,79.2,65.0,29.98,SE,135,0.0,3.0,61,0.00,,,0.00,weatherlink.com 1.10,2013-07-02 18:01:00,
2013-07-02 13:16:00,79.7,64.0,29.98,SSW,205,0.0,7.0,60,0.00,,,0.00,weatherlink.com 1.10,2013-07-02 18:16:00,
2013-07-02 13:31:00,80.7,63.0,29.98,SSE,167,0.0,4.0,56,0.00,,,0.00,weatherlink.com 1.10,2013-07-02 18:31:00,
2013-07-02 13:46:00,81.8,66.0,29.97,South,190,1.0,4.0,60,0.00,,,0.00,weatherlink.com 1.10,2013-07-02 18:46:00,
2013-07-02 14:01:00,80.8,64.0,29.97,South,179,0.0,6.0,56,0.00,,,0.00,weatherlink.com 1.10,2013-07-02 19:01:00,
2013-07-02 14:16:00,81.6,64.0,29.97,NE,52,1.0,5.0,56,0.00,,,0.00,weatherlink.com 1.10,2013-07-02 19:16:00,
2013-07-02 14:31:00,81.9,66.0,29.97,NE,55,1.0,3.0,59,0.00,,,0.00,weatherlink.com 1.10,2013-07-02 19:31:00,
2013-07-02 15:02:00,80.8,66.0,29.97,ESE,122,0.0,2.0,62,0.00,,,0.00,weatherlink.com 1.10,2013-07-02 20:02:00,
2013-07-02 15:17:00,81.4,65.0,29.96,South,177,1.0,4.0,57,0.00,,,0.00,weatherlink.com 1.10,2013-07-02 20:17:00,
2013-07-02 15:32:00,81.1,65.0,29.97,WSW,241,1.0,5.0,58,0.00,,,0.00,weatherlink.com 1.10,2013-07-02 20:32:00,
2013-07-02 15:47:00,81.0,65.0,29.97,ENE,66,2.0,6.0,58,0.00,,,0.00,weatherlink.com 1.10,2013-07-02 20:47:00,
2013-07-02 16:02:00,80.8,65.0,29.97,SSW,203,0.0,4.0,59,0.00,,,0.00,weatherlink.com 1.10,2013-07-02 21:02:00,
2013-07-02 16:17:00,80.3,64.0,29.96,NE,45,1.0,4.0,58,0.00,,,0.00,weatherlink.com 1.10,2013-07-02 21:17:00,
2013-07-02 16:32:00,80.3,65.0,29.96,SSW,202,1.0,6.0,60,0.00,,,0.00,weatherlink.com 1.10,2013-07-02 21:32:00,
2013-07-02 16:47:00,80.3,66.0,29.96,ESE,108,1.0,4.0,61,0.00,,,0.00,weatherlink.com 1.10,2013-07-02 21:47:00,
2013-07-02 17:02:00,80.2,65.0,29.96,NE,48,0.0,3.0,60,0.00,,,0.00,weatherlink.com 1.10,2013-07-02 22:02:00,
2013-07-02 17:17:00,79.6,66.0,29.96,SE,131,0.0,1.0,63,0.00,,,0.00,weatherlink.com 1.10,2013-07-02 22:17:00,
2013-07-02 17:32:00,79.5,65.0,29.96,ENE,66,0.0,2.0,61,0.00,,,0.00,weatherlink.com 1.10,2013-07-02 22:32:00,
2013-07-02 17:47:00,78.3,67.0,29.95,ENE,74,0.0,1.0,69,0.00,,,0.00,weatherlink.com 1.10,2013-07-02 22:47:00,
2013-07-02 18:02:00,78.4,66.0,29.96,South,170,0.0,3.0,65,0.00,,,0.00,weatherlink.com 1.10,2013-07-02 23:02:00,
2013-07-02 18:17:00,77.8,65.0,29.96,NE,49,0.0,1.0,65,0.00,,,0.00,weatherlink.com 1.10,2013-07-02 23:17:00,
2013-07-02 18:32:00,77.0,66.0,29.96,ESE,116,0.0,1.0,68,0.00,,,0.00,weatherlink.com 1.10,2013-07-02 23:32:00,
2013-07-02 18:47:00,76.1,65.0,29.97,ESE,116,0.0,0.0,69,0.00,,,0.00,weatherlink.com 1.10,2013-07-02 23:47:00,
2013-07-02 19:02:00,75.8,66.0,29.98,SW,228,1.0,4.0,71,0.00,,,0.00,weatherlink.com 1.10,2013-07-03 00:02:00,
2013-07-02 19:17:00,76.3,66.0,29.98,West,276,0.0,6.0,70,0.00,,,0.00,weatherlink.com 1.10,2013-07-03 00:17:00,
2013-07-02 19:32:00,75.6,65.0,29.98,NW,322,0.0,3.0,70,0.00,,,0.00,weatherlink.com 1.10,2013-07-03 00:32:00,
2013-07-02 19:47:00,74.7,66.0,29.99,ENE,62,0.0,3.0,73,0.00,,,0.00,weatherlink.com 1.10,2013-07-03 00:47:00,
2013-07-02 20:02:00,73.8,65.0,29.99,ENE,65,0.0,2.0,73,0.00,,,0.00,weatherlink.com 1.10,2013-07-03 01:02:00,
2013-07-02 20:17:00,73.1,65.0,29.99,ENE,75,0.0,1.0,76,0.00,,,0.00,weatherlink.com 1.10,2013-07-03 01:17:00,
2013-07-02 20:32:00,72.1,65.0,30.00,ENE,75,0.0,0.0,78,0.00,,,0.00,weatherlink.com 1.10,2013-07-03 01:32:00,
2013-07-02 20:47:00,71.5,65.0,30.00,ENE,75,0.0,0.0,80,0.00,,,0.00,weatherlink.com 1.10,2013-07-03 01:47:00,
2013-07-02 21:02:00,71.2,66.0,30.01,ENE,75,0.0,0.0,82,0.00,,,0.00,weatherlink.com 1.10,2013-07-03 02:02:00,
2013-07-02 21:17:00,71.0,66.0,30.01,ENE,75,0.0,0.0,83,0.00,,,0.00,weatherlink.com 1.10,2013-07-03 02:17:00,
2013-07-02 21:32:00,70.8,65.0,30.01,ENE,75,0.0,1.0,83,0.00,,,0.00,weatherlink.com 1.10,2013-07-03 02:32:00,
2013-07-02 21:47:00,70.7,66.0,30.02,ENE,75,0.0,0.0,85,0.00,,,0.00,weatherlink.com 1.10,2013-07-03 02:47:00,
2013-07-02 22:02:00,70.3,66.0,30.03,ENE,75,0.0,0.0,85,0.00,,,0.00,weatherlink.com 1.10,2013-07-03 03:02:00,
2013-07-02 22:17:00,69.8,66.0,30.03,ENE,75,0.0,0.0,86,0.00,,,0.00,weatherlink.com 1.10,2013-07-03 03:17:00,
2013-07-02 22:32:00,70.0,66.0,30.03,ENE,75,0.0,1.0,87,0.00,,,0.00,weatherlink.com 1.10,2013-07-03 03:32:00,
2013-07-02 22:47:00,69.6,66.0,30.04,ENE,75,0.0,1.0,89,0.00,,,0.00,weatherlink.com 1.10,2013-07-03 03:47:00,
2013-07-02 23:02:00,69.0,66.0,30.04,ENE,75,0.0,0.0,91,0.00,,,0.00,weatherlink.com 1.10,2013-07-03 04:02:00,
2013-07-02 23:17:00,68.7,66.0,30.03,ENE,75,0.0,0.0,92,0.00,,,0.00,weatherlink.com 1.10,2013-07-03 04:17:00,
2013-07-02 23:32:00,68.4,66.0,30.03,East,91,0.0,1.0,92,0.00,,,0.00,weatherlink.com 1.10,2013-07-03 04:32:00,
2013-07-02 23:47:00,68.0,65.0,30.03,East,91,0.0,0.0,91,0.00,,,0.00,weatherlink.com 1.10,2013-07-03 04:47:00,